This is the latest recevied weather packets stored in our database for station/object WB4ZUT. If no packets are shown the sender has not sent any weather packets the latest 10 day(s).
| Time | Temp. | Humidity | Pressure | Rain* | Wind** | Luminosity | Snow |
|---|---|---|---|---|---|---|---|
| 1777937738 | 25.56° C | 45% | 1004.6 hPa | 0 mm | - | 55 W/m² | - |
| 1777937435 | 25.56° C | 45% | 1004.8 hPa | 0 mm | - | 54 W/m² | - |
| 1777937132 | 25.56° C | 45% | 1004.6 hPa | 0 mm | - | 101 W/m² | - |
| 1777936830 | 25.56° C | 44% | 1005 hPa | 0 mm | - | 128 W/m² | - |
| 1777936526 | 25.56° C | 44% | 1005.2 hPa | 0 mm | - | 160 W/m² | - |
| 1777936222 | 25° C | 44% | 1005.7 hPa | 0 mm | - | 95 W/m² | - |
| 1777935919 | 25.56° C | 44% | 1006.2 hPa | 0 mm | - | 86 W/m² | - |
| 1777935618 | 25.56° C | 44% | 1006.2 hPa | 0 mm | - | 94 W/m² | - |
| 1777935315 | 25.56° C | 45% | 1006.3 hPa | 0 mm | - | 106 W/m² | - |
| 1777935012 | 25.56° C | 44% | 1006.3 hPa | 0 mm | - | 102 W/m² | - |
| 1777934708 | 25.56° C | 44% | 1006.6 hPa | 0 mm | - | 84 W/m² | - |
| 1777934405 | 25.56° C | 44% | 1006.5 hPa | 0 mm | - | 73 W/m² | - |
| 1777934102 | 25.56° C | 44% | 1006.8 hPa | 0 mm | - | 81 W/m² | - |
| 1777933797 | 25.56° C | 43% | 1007 hPa | 0 mm | - | 95 W/m² | - |
| 1777933495 | 25.56° C | 44% | 1007.2 hPa | 0 mm | - | 89 W/m² | - |
| 1777933192 | 25.56° C | 44% | 1007.1 hPa | 0 mm | - | 77 W/m² | - |
| 1777932889 | 25.56° C | 43% | 1007.3 hPa | 0 mm | - | 74 W/m² | - |
| 1777932587 | 25.56° C | 44% | 1007.4 hPa | 0 mm | - | 85 W/m² | - |
| 1777932283 | 25.56° C | 43% | 1007.5 hPa | 0 mm | - | 107 W/m² | - |
| 1777931980 | 25.56° C | 43% | 1007.7 hPa | 0 mm | - | 122 W/m² | - |
| 1777931676 | 25.56° C | 44% | 1007.9 hPa | 0 mm | - | 128 W/m² | - |
| 1777931373 | 25.56° C | 43% | 1007.7 hPa | 0 mm | - | 136 W/m² | - |
| 1777931069 | 25.56° C | 44% | 1007.5 hPa | 0 mm | - | 147 W/m² | - |
| 1777930766 | 25.56° C | 44% | 1007.5 hPa | 0 mm | - | 155 W/m² | - |
| 1777930462 | 26.11° C | 45% | 1007.5 hPa | 0 mm | - | 160 W/m² | - |
* Rain latest hour (hover to see other rain measurements)
** Current wind speed in m/s (hover to see current wind gust speed)